Location: Unspecified
(0.0000°N, 0.0000°E)
Time: 06:27:54
(UTC+00:00)

Eole - Pass Details

Date: 25 May 2026
Orbit: 620 x 764 km, 50.1° (Epoch: 8 June)

Event Time Altitude Azimuth Distance (km) Brightness Sun altitude
Rises 19:23:14 0° 235° (SW) 3,125 10.6 -20.1°
Reaches altitude 10° 19:25:54 10° 245° (WSW) 2,178 9.9 -20.7°
Maximum altitude 19:30:19 31° 306° (NW) 1,196 8.6 -21.7°
Drops below altitude 10° 19:34:35 10° 9° (N) 2,085 9.4 -22.7°
Sets 19:37:06 0° 19° (NNE) 2,970 10.1 -23.2°
